Date String (YYYY-MM-DD hh:mm:ss) UTC,Instrument flags,absolute air pressure of the measurement (hPa),sample flow rate (lpm),inlet stack bypass flow (lpm),air temperature of the measurement (°C),ambient temperature measured by the external sensor (°C),aerosol sample conditioner tube jacket temperature (°C),OPC LED temperature (°C),internal box temperature (°C),relative humidity of the measurement (%),span deviation,mass concentration of particles derived from Lorenz-Mie calculation of OPC scattering (μg/m³),mass concentration of particles derived from Lorenz-Mie calculation of OPC scattering (μg/m³),mass concentration of particles derived from Lorenz-Mie calculation of OPC scattering (μg/m³)
DateTimeUTC,F1_M11,P_M11,Q1_M11,Q2_M11,T1_M11,T2_M11,T3_M11,T4_M11,T5_M11,U1_M11,ZSPAN_M11,X0_M11,X2_M11,X1_M11
2024-06-14 22:00:00,SystemResetWarning,0829.2,5.00,000.00,029.7,029.2,000.0,037.8,031.5,036.4,-000.1,0027.43,0009.65,0007.25
2024-06-14 22:01:00,SystemResetWarning,0829.1,5.00,000.00,029.7,029.3,000.0,037.8,031.6,036.0,0000.5,0027.42,0009.70,0007.29
2024-06-14 22:02:00,SystemResetWarning,0829.1,5.00,000.00,029.8,029.4,000.0,037.9,031.7,035.0,0000.8,0028.21,0009.77,0007.33
2024-06-14 22:03:00,SystemResetWarning,0829.0,5.00,000.00,029.8,029.4,000.0,037.9,031.8,034.0,0001.1,0026.53,0009.68,0007.31
2024-06-14 22:04:00,SystemResetWarning,0829.0,5.00,000.00,029.9,029.5,000.0,038.0,031.8,033.6,0000.8,0024.96,0009.58,0007.28
2024-06-14 22:05:00,SystemResetWarning,0828.9,4.98,000.00,029.9,029.1,000.0,038.0,031.6,034.5,0000.2,0024.44,0009.54,0007.28
2024-06-14 22:06:00,SystemResetWarning,0828.7,5.00,000.00,029.6,026.9,000.0,038.1,030.5,035.1,0000.0,0024.58,0009.50,0007.27
2024-06-14 22:07:00,SystemResetWarning,0828.6,5.00,000.00,029.2,025.7,000.0,038.1,029.9,035.6,0000.3,0024.76,0009.53,0007.25
2024-06-14 22:08:00,SystemResetWarning,0828.6,5.02,000.00,029.0,025.8,000.0,038.0,029.8,036.3,0000.4,0025.10,0009.41,0007.22
2024-06-14 22:09:00,SystemResetWarning,0828.5,4.98,000.00,028.9,026.3,000.0,037.9,030.0,035.0,-000.2,0025.47,0009.43,0007.23
2024-06-14 22:10:00,SystemResetWarning,0828.5,4.99,000.00,029.0,026.7,000.0,037.7,030.3,036.3,0000.1,0025.83,0009.39,0007.17
2024-06-14 22:11:00,SystemResetWarning,0828.5,5.01,000.00,029.0,027.2,000.0,037.7,030.6,035.9,0000.4,0025.80,0009.34,0007.11
2024-06-14 22:12:00,SystemResetWarning,0828.4,5.00,000.00,029.1,027.6,000.0,037.6,030.7,036.1,0000.2,0026.32,0009.27,0007.07
2024-06-14 22:13:00,SystemResetWarning,0828.4,5.00,000.00,029.1,027.9,000.0,037.6,030.9,035.8,0000.2,0025.87,0009.19,0007.05
2024-06-14 22:14:00,SystemResetWarning,0828.4,5.00,000.00,029.2,028.2,000.0,037.6,031.0,035.8,0000.2,0027.31,0009.22,0007.07
2024-06-14 22:15:00,SystemResetWarning,0828.4,4.99,000.00,029.3,028.4,000.0,037.6,031.1,035.4,-000.1,0029.37,0009.31,0007.12
2024-06-14 22:16:00,SystemResetWarning,0828.4,5.00,000.00,029.3,028.6,000.0,037.6,031.2,035.2,-000.4,0030.12,0009.34,0007.14
2024-06-14 22:17:00,SystemResetWarning,0828.4,5.00,000.00,029.4,028.8,000.0,037.6,031.3,034.7,0000.1,0030.19,0009.39,0007.14
2024-06-14 22:18:00,SystemResetWarning,0828.4,5.00,000.00,029.5,028.9,000.0,037.6,031.4,034.6,0000.7,0030.24,0009.38,0007.14
2024-06-14 22:19:00,SystemResetWarning,0828.4,5.00,000.00,029.6,029.0,000.0,037.7,031.4,034.5,0001.0,0030.52,0009.41,0007.16
2024-06-14 22:20:00,SystemResetWarning,0828.4,5.00,000.00,029.6,029.2,000.0,037.7,031.5,034.6,0001.3,0029.35,0009.36,0007.16
2024-06-14 22:21:00,SystemResetWarning,0828.4,5.01,000.00,029.7,029.3,000.0,037.8,031.6,034.1,0001.9,0028.80,0009.46,0007.19
2024-06-14 22:22:00,SystemResetWarning,0828.4,5.01,000.00,029.8,029.4,000.0,037.8,031.6,033.9,0001.6,0028.27,0009.37,0007.21
2024-06-14 22:23:00,SystemResetWarning,0828.4,5.00,000.00,029.8,029.5,000.0,037.9,031.7,033.8,0000.9,0028.72,0009.31,0007.21
2024-06-14 22:24:00,SystemResetWarning,0828.4,4.99,000.00,029.9,029.5,000.0,037.9,031.8,033.6,0002.6,0028.31,0009.31,0007.20
2024-06-14 22:25:00,SystemResetWarning,0828.3,4.98,000.00,030.0,029.4,000.0,038.0,031.7,033.4,0002.6,0027.19,0009.28,0007.17
2024-06-14 22:26:00,SystemResetWarning,0828.2,5.00,000.00,029.8,027.5,000.0,038.0,030.9,033.9,0003.0,0025.78,0009.32,0007.13
2024-06-14 22:27:00,SystemResetWarning,0828.1,5.02,000.00,029.5,026.5,000.0,038.1,030.4,034.5,0000.9,0024.61,0009.31,0007.12
2024-06-14 22:28:00,SystemResetWarning,0828.1,5.00,000.00,029.3,026.7,000.0,038.0,030.4,034.6,0000.0,0024.88,0009.27,0007.11
2024-06-14 22:29:00,SystemResetWarning,0828.1,5.00,000.00,029.3,027.1,000.0,037.9,030.6,033.8,0000.0,0024.74,0009.17,0007.08
2024-06-14 22:30:00,SystemResetWarning,0828.1,5.00,000.00,029.3,027.6,000.0,037.8,030.8,034.0,0000.1,0025.02,0009.08,0007.04
2024-06-14 22:31:00,SystemResetWarning,0828.1,4.99,000.00,029.4,027.9,000.0,037.8,031.0,033.8,0001.4,0025.81,0009.00,0007.00
2024-06-14 22:32:00,SystemResetWarning,0828.1,4.99,000.00,029.4,028.2,000.0,037.8,031.1,033.0,0001.2,0026.14,0008.85,0006.96
2024-06-14 22:33:00,SystemResetWarning,0828.1,5.00,000.00,029.5,028.5,000.0,037.8,031.2,033.3,0001.2,0026.04,0008.81,0006.91
2024-06-14 22:34:00,SystemResetWarning,0828.2,5.00,000.00,029.5,028.7,000.0,037.8,031.3,032.7,0000.5,0025.37,0008.79,0006.86
2024-06-14 22:35:00,SystemResetWarning,0828.2,5.00,000.00,029.6,028.9,000.0,037.8,031.4,032.3,-000.2,0025.88,0008.78,0006.84
2024-06-14 22:36:00,SystemResetWarning,0828.2,5.00,000.00,029.7,029.1,000.0,037.9,031.5,031.8,0000.1,0025.92,0008.68,0006.80
2024-06-14 22:37:00,SystemResetWarning,0828.1,5.00,000.00,029.8,029.2,000.0,037.9,031.6,031.9,0000.2,0025.26,0008.57,0006.75
2024-06-14 22:38:00,SystemResetWarning,0828.1,5.00,000.00,029.8,029.3,000.0,037.9,031.7,031.1,0000.7,0024.52,0008.54,0006.71
2024-06-14 22:39:00,SystemResetWarning,0828.1,5.00,000.00,029.9,029.5,000.0,038.0,031.7,031.2,0000.1,0024.97,0008.52,0006.66
2024-06-14 22:40:00,SystemResetWarning,0828.1,4.98,000.00,029.9,028.4,000.0,038.0,031.2,031.0,-000.3,0025.60,0008.50,0006.62
2024-06-14 22:41:00,SystemResetWarning,0828.0,5.01,000.00,029.5,026.3,000.0,038.1,030.2,030.6,0000.2,0024.70,0008.46,0006.59
2024-06-14 22:42:00,SystemResetWarning,0827.9,5.01,000.00,029.1,025.7,000.0,038.0,029.8,032.0,0000.0,0024.19,0008.49,0006.56
2024-06-14 22:43:00,SystemResetWarning,0827.9,5.00,000.00,029.0,026.0,000.0,037.9,029.9,032.3,0000.0,0023.18,0008.53,0006.54
2024-06-14 22:44:00,SystemResetWarning,0828.0,5.00,000.00,029.0,026.5,000.0,037.8,030.2,032.3,0000.0,0023.23,0008.51,0006.53
2024-06-14 22:45:00,SystemResetWarning,0828.0,5.00,000.00,029.0,027.0,000.0,037.7,030.4,031.1,0000.0,0023.30,0008.47,0006.50
2024-06-14 22:46:00,SystemResetWarning,0828.1,5.00,000.00,029.0,027.4,000.0,037.7,030.6,032.5,0000.0,0022.84,0008.39,0006.47
2024-06-14 22:47:00,SystemResetWarning,0828.1,4.99,000.00,029.1,027.8,000.0,037.6,030.8,032.0,0000.0,0022.03,0008.34,0006.43
2024-06-14 22:48:00,SystemResetWarning,0828.1,5.00,000.00,029.2,028.1,000.0,037.6,030.9,031.6,0000.0,0023.75,0008.28,0006.41
2024-06-14 22:49:00,SystemResetWarning,0828.0,5.01,000.00,029.3,028.3,000.0,037.6,031.1,031.8,0000.0,0024.06,0008.20,0006.39
2024-06-14 22:50:00,SystemResetWarning,0828.0,5.00,000.00,029.3,028.6,000.0,037.6,031.1,032.2,0000.0,0023.16,0008.15,0006.37
2024-06-14 22:51:00,SystemResetWarning,0827.8,4.99,000.00,029.4,028.8,000.0,037.7,031.2,032.4,0000.3,0021.66,0008.19,0006.37
2024-06-14 22:52:00,SystemResetWarning,0827.8,4.99,000.00,029.5,028.9,000.0,037.7,031.3,031.8,0001.1,0021.45,0008.19,0006.37
2024-06-14 22:53:00,SystemResetWarning,0827.8,5.00,000.00,029.6,029.1,000.0,037.7,031.4,031.9,0002.0,0021.09,0008.15,0006.36
2024-06-14 22:54:00,SystemResetWarning,0827.9,5.01,000.00,029.6,029.2,000.0,037.7,031.5,032.2,0002.1,0022.26,0008.11,0006.36
2024-06-14 22:55:00,SystemResetWarning,0828.0,5.00,000.00,029.7,029.3,000.0,037.8,031.6,032.7,0000.6,0023.03,0008.13,0006.35
2024-06-14 22:56:00,SystemResetWarning,0828.1,5.00,000.00,029.8,029.4,000.0,037.8,031.7,032.0,0000.4,0023.44,0008.19,0006.36
2024-06-14 22:57:00,SystemResetWarning,0828.1,5.01,000.00,029.9,029.5,000.0,037.9,031.7,031.9,0000.0,0023.47,0008.22,0006.38
2024-06-14 22:58:00,SystemResetWarning,0828.1,4.99,000.00,029.9,028.7,000.0,037.9,031.3,032.0,0000.0,0024.97,0008.27,0006.40
2024-06-14 22:59:00,SystemResetWarning,0828.1,5.00,000.00,029.5,026.4,000.0,038.0,030.2,032.3,0000.6,0024.74,0008.30,0006.44
